Location: Seven Kings
(51.5667°N, 0.1000°E)
Time: 12:20:46
(UTC+00:00)

FALCON 9 DEB - Pass Details

Date: 29 October 2020
Orbit: 383 x 397 km, 53.0° (Epoch: 24 November)

Event Time Altitude Azimuth Distance (km) Brightness Sun altitude
Rises 17:59:29 0° 245° (WSW) 2,307 8.3 -13.2°
Reaches altitude 10° 18:01:33 10° 243° (WSW) 1,449 6.9 -13.6°
Maximum altitude 18:04:47 71° 160° (SSE) 427 2.9 -14.1°
Enters shadow 18:06:10 31° 82° (E) 730 3.7 -14.3°
